Regional Weather Roundup
Issued by NWS

Home | Current Version | Previous Version | Graphics & Text | Print | Product List | Glossary On
Versions: 1 2 3 4 5 6 7 8 9 10 11 12 13 14 15 16 17 18 19 20 21 22 23 24 25 26 27 28 29 30 31 32 33 34 35 36 37 38 39 40 41 42 43 44 45 46 47 48 49 50
000
ASUS45 KBOU 021610
RWRCO

WEATHER ROUNDUP FOR COLORADO
NATIONAL WEATHER SERVICE PUEBLO CO
1000 AM MDT SUN AUG 02 2015

NOTE: "FAIR" INDICATES FEW OR NO CLOUDS BELOW 12000 FEET WITH NO
SIGNIFICANT WEATHER AND/OR OBSTRUCTIONS TO VISIBILITY.

COZ001>005-013-030-031-021700-
...NORTHWEST COLORADO...

CITY           SKY/WX    TMP DP  RH WIND       PRES   REMARKS
CRAIG          MOSUNNY   77  45  32 NE9       30.20F
HAYDEN         MOSUNNY   70  43  37 SE5       30.23F
MEEKER         PTSUNNY   71  46  40 CALM      30.22F
MOUNT WERNER   NOT AVBL
STEAMBOAT SPGS FAIR      66  43  43 CALM      30.26S
WALDEN         FAIR      70  37  30 CALM      30.34S
$$

COZ006>008-011-021700-
...WEST CENTRAL VALLEYS...

CITY           SKY/WX    TMP DP  RH WIND       PRES   REMARKS
GRAND JUNCTION CLOUDY    73  51  46 SE13      30.14R
MONTROSE       CLOUDY    67  56  67 CALM      30.24R
EAGLE          CLOUDY    68  45  42 CALM      30.27F
RIFLE          CLOUDY    71  50  47 CALM      30.18S
DELTA          NOT AVBL
NUCLA          LGT RAIN  61  59  94 CALM      30.31R
$$

COZ017>023-064>068-021700-
...SOUTHWEST COLORADO...

CITY           SKY/WX    TMP DP  RH WIND       PRES   REMARKS
DURANGO        PTSUNNY   66  54  65 CALM      30.27S
CORTEZ         CLOUDY    65  62  90 NE5       30.24R
PAGOSA SPRINGS FAIR      64  52  64 SW3       30.34R
TELLURIDE      CLOUDY    56  53  91 CALM      30.45R
WOLF CREEK PAS NOT AVBL
$$

COZ009-010-012-014-032>034-037-058>063-021700-
...CENTRAL COLORADO...

CITY           SKY/WX    TMP DP  RH WIND       PRES   REMARKS
ASPEN          CLOUDY    63  49  60 CALM      30.33S
BUENA VISTA    PTSUNNY   65  47  51 NW5       30.33S
COPPER MTN     PTSUNNY   59  34  38 W7        30.64S
BERTHOUD PASS  FAIR      50  39  66 E5        30.69R
COTTONWOOD PAS CLOUDY    63  43  48 SE5       30.47S
GUNNISON       CLOUDY    59  52  77 SW6       30.36F
KREMMLING      MOSUNNY   64  39  39 CALM      30.32F
LEADVILLE      CLOUDY    59  44  57 CALM      30.46S
MONARCH PASS   CLOUDY    54  43  66 E5        30.72S
SALIDA         NOT AVBL
NIWOT RIDGE    NOT AVBL
SUNLIGHT       CLOUDY    57  43  58 CALM      30.57S
WILKERSON PASS CLOUDY    59  39  47 CALM      30.60S
$$

COZ069>075-021700-
...SAN LUIS VALLEY/SANGRE DE CRISTO MOUNTAINS...

CITY           SKY/WX    TMP DP  RH WIND       PRES   REMARKS
ALAMOSA        MOSUNNY   66  50  56 CALM      30.31S
LA VETA PASS   SUNNY     54  46  76 MISG      30.49R
SAGUACHE       PTSUNNY   66  52  59 S6        30.34F
$$

COZ035-036-038>040-021700-
...NORTHERN COLORADO FRONT RANGE...

CITY           SKY/WX    TMP DP  RH WIND       PRES   REMARKS
DENVER INTL AP PTSUNNY   83  51  33 W5        30.11S
DMNS CITY PARK NOT AVBL
AURORA         MOSUNNY   80  49  33 W5        30.13S
FRONT RANGE AP PTSUNNY   81  46  30 MISG      30.12S
ERIE MUNI ARPT FAIR      81  51  35 SE5       30.08S
BOULDER MUN AP FAIR      81  43  26 CALM      30.09S
CENTENNIAL     PTSUNNY   80  46  30 VRB3      30.14S
BROOMFIELD     NOT AVBL
LOVELAND       SUNNY     81  55  41 E5        30.09R
LONGMONT       FAIR      82  50  32 E5        30.09S
$$

COZ041-046-047-076>085-087-088-021700-
...PIKES PEAK/PALMER DIVIDE AND SOUTHERN FOOTHILLS...

CITY           SKY/WX    TMP DP  RH WIND       PRES   REMARKS
COLO. SPRINGS  MOSUNNY   80  46  30 SE7       30.19R
A. F. ACADEMY  MOSUNNY   82  42  24 VRB2      30.19S
ELLICOTT       FAIR     N/A N/A N/A S10       30.17R
FALCON         FAIR      78  44  30 SE6       30.24S
FORT CARSON    MOSUNNY   79  49  34 SE6       30.16R
LIMON          SUNNY     84  42  22 SE15      30.12S
MONUMENT HILL  NOT AVBL
TRINIDAD       MOSUNNY   76  49  38 CALM      30.16S
$$

COZ042>045-048>051-090-091-021700-
...NORTHEAST COLORADO...

CITY           SKY/WX    TMP DP  RH WIND       PRES   REMARKS
GREELEY ARPT   SUNNY     75  55  50 NE3       30.08R
AKRON          SUNNY     84  52  33 VRB5      30.07R
BURLINGTON     SUNNY     84  61  45 SE10      30.06R
WRAY           FAIR      87  61  40 CALM      30.01S
STERLING       FAIR      77  61  57 S3        30.02S
HOLYOKE        FAIR      79  64  61 SE6       30.02R
FORT MORGAN    FAIR      78  55  45 CALM      30.06S
$$

COZ086-089-092>099-021700-
...SOUTHEAST COLORADO...

CITY           SKY/WX    TMP DP  RH WIND       PRES   REMARKS
PUEBLO         SUNNY     79  55  43 CALM      30.08R
LA JUNTA       SUNNY     86  52  30 E3        30.04F
LAMAR          SUNNY     85  59  41 NW3       30.00S
SPRINGFIELD      N/A     84  58  40 NW8       30.05S
$$




USA.gov is the U.S. government's official web portal to all federal, state and local government web resources and services.